Preview of NWS' New Version of Forecast
This preview is not operational and should not be used for support decisions.

Regional Weather Roundup (RWR)

Issued by National Weather Service (NWS)

                            
000
ASPQ40 PGUM 250710
RWRPQ 
WEATHER ROUNDUP FOR THE MARIANAS AND MICRONESIA
NATIONAL WEATHER SERVICE TIYAN GU
500 PM CHST TUE JUN 25 2019

GUZ001>004-250800-
MARIANA ISLANDS-
  
CITY           SKY/WX    TMP DP  RH WIND       PRES   REMARKS
GUAM AIRPORT   SUNNY     88  73  62 E15       29.88R HX  96           
ANDERSEN AFB   PTSUNNY   84  73  70 E13       29.89R HX  91           
ROTA AIRPORT   PTSUNNY   84  72  65 E16       29.87S                  
TINIAN AP      MOSUNNY   90  75  62 E17       29.87S HX 100           
SAIPAN AP      MOSUNNY   86  73  66 E16       29.89R HX  93           

$$

PMZ161-250800-
REPUBLIC OF PALAU-
  
CITY           SKY/WX    TMP DP  RH WIND       PRES   REMARKS
KOROR AP       CLOUDY    84  75  74 NW8       29.81S HX  92           
KOROR WSO      NOT AVBL                                               

$$

PMZ171>174-250800-
FEDERATED STATES OF MICRONESIA-
  
CITY           SKY/WX    TMP DP  RH WIND       PRES   REMARKS
YAP AIRPORT    PTSUNNY   88  79  74 VRB7      29.81F HX 102           
CHUUK AP       LGT RAIN  81  79  94 SE8       29.82R                  
POHNPEI AP     NOT AVBL                                               
POHNPEI WSO    LGT RAIN  77  75  94 NE2       29.89R                  
KOSRAE AP      NOT AVBL                                               

$$

PMZ181-250800-
REPUBLIC OF THE MARSHALL ISLANDS-
  
CITY           SKY/WX    TMP DP  RH WIND       PRES   REMARKS
KWAJALEIN AP   CLEAR     84  79  84 SE12      29.86R HX  96           
MAJURO AP      MOCLDY    84  77  79 NE14      29.84  HX  94           
MAJURO WSO     MOCLDY    84  77  79 E6        29.83R HX  94           

$$